DW2633 Weather Reports


time (UTC)temp
C
wind
direction
speed
KPH
gust
KPH
rain 1hr
cm
rain 24hr
cm
rain mn
cm
humidity
%
barometer
mb
20260506081047 11 144 1.6 0.0 0.00 0.00 0.00 94 1005.7
20260506080547 11 150 0.0 0.0 0.00 0.00 0.00 94 1005.9
20260506073043 11 155 1.6 0.0 0.00 0.00 0.00 93 1006.3
20260506072542 11 155 1.6 0.0 0.00 0.00 0.00 93 1006.3
20260506072042 11 154 0.0 0.0 0.00 0.00 0.00 93 1006.5
20260506071542 11 148 0.0 0.0 0.00 0.00 0.00 93 1006.6
20260506071041 11 146 0.0 0.0 0.00 0.00 0.00 93 1006.5
20260506070541 11 146 0.0 0.0 0.00 0.00 0.00 93 1006.5
20260506062038 11 138 4.8 0.0 0.00 0.00 0.00 93 1006.4
20260506061540 11 138 6.4 0.0 0.00 0.00 0.00 93 1006.6
20260506061038 11 138 4.8 0.0 0.00 0.00 0.00 93 1006.6
20260506060537 11 149 3.2 0.0 0.00 0.00 0.00 93 1006.5
20260506051031 12 263 9.7 0.0 0.00 0.00 0.00 92 1006.5
20260506050530 12 243 8.0 0.0 0.00 0.00 0.00 92 1006.8
20260506045025 13 257 3.2 0.0 0.00 0.00 0.00 92 1007.0
20260506044525 13 218 0.0 0.0 0.00 0.00 0.00 93 1006.9
20260506044024 13 179 0.0 0.0 0.00 0.00 0.00 93 1006.9
20260506043527 13 179 0.0 0.0 0.00 0.00 0.00 93 1007.1
20260506043022 13 179 0.0 0.0 0.00 0.00 0.00 93 1007.3
20260506042522 13 179 0.0 0.0 0.00 0.00 0.00 93 1007.2
20260506042020 13 179 0.0 0.0 0.00 0.00 0.00 93 1007.3
20260506041520 13 179 0.0 0.0 0.00 0.00 0.00 93 1007.6
20260506041020 13 179 0.0 0.0 0.00 0.00 0.00 93 1007.5
20260506040521 13 179 0.0 0.0 0.00 0.00 0.00 93 1007.5
20260506040023 13 179 0.0 0.0 0.00 0.00 0.00 93 1007.5
20260506035519 13 177 0.0 0.0 0.00 0.00 0.00 93 1007.5
20260506035016 13 153 1.6 0.0 0.00 0.00 0.00 93 1007.3
20260506034521 13 153 1.6 0.0 0.00 0.00 0.00 93 1007.1
20260506034017 13 152 1.6 0.0 0.00 0.00 0.00 94 1007.2
20260506033516 13 149 4.8 0.0 0.00 0.00 0.00 93 1007.2
20260506033015 13 149 6.4 0.0 0.00 0.00 0.00 93 1006.9
20260506032515 13 149 3.2 0.0 0.00 0.00 0.00 93 1007.1
20260506032015 13 182 0.0 0.0 0.00 0.00 0.00 93 1007.1
20260506031517 13 182 0.0 0.0 0.00 0.00 0.00 93 1007.0
20260506031015 13 182 3.2 0.0 0.00 0.00 0.00 93 1006.9
20260506030514 12 182 3.2 0.0 0.00 0.00 0.00 93 1006.8
20260506030031 12 268 1.6 0.0 0.00 0.00 0.00 92 1006.8
20260506025514 12 268 3.2 0.0 0.00 0.00 0.00 92 1006.9
20260506025014 12 268 8.0 0.0 0.00 0.00 0.00 92 1006.9
20260506024528 13 277 9.7 0.0 0.00 0.00 0.00 92 1006.9
20260506024012 13 275 11.3 0.0 0.00 0.00 0.00 92 1006.7
20260506023512 13 255 9.7 0.0 0.00 0.00 0.00 92 1006.5
20260506023013 13 246 6.4 0.0 0.00 0.00 0.00 92 1006.5
20260506022511 13 248 6.4 0.0 0.00 0.00 0.00 91 1006.6
20260506022011 13 232 4.8 0.0 0.00 0.00 0.00 91 1006.6
20260506021511 13 244 4.8 0.0 0.00 0.00 0.00 91 1006.6
20260506021013 13 245 4.8 0.0 0.00 0.00 0.00 91 1006.6
20260506020509 13 246 6.4 0.0 0.00 0.00 0.00 90 1006.6
20260506020009 13 244 3.2 0.0 0.00 0.00 0.00 91 1006.4
20260506015509 13 205 3.2 0.0 0.00 0.00 0.00 92 1006.4
20260506015009 13 199 3.2 0.0 0.00 0.00 0.00 92 1006.5
20260506014508 13 149 1.6 0.0 0.00 0.00 0.00 92 1006.4
20260506014007 13 138 3.2 0.0 0.00 0.00 0.00 93 1006.2
20260506013506 13 136 4.8 0.0 0.00 0.00 0.00 93 1006.0
20260506013008 13 136 6.4 0.0 0.00 0.00 0.00 92 1005.9
20260506012505 13 136 3.2 0.0 0.00 0.00 0.00 92 1005.7
20260506012005 13 136 3.2 0.0 0.00 0.00 0.00 92 1005.7
20260506011504 13 136 3.2 0.0 0.00 0.00 0.00 92 1005.8
20260506011004 14 131 4.8 0.0 0.00 0.00 0.00 92 1005.6
20260506010504 14 130 6.4 0.0 0.00 0.00 0.00 92 1005.5
20260506010009 14 130 6.4 0.0 0.00 0.00 0.00 92 1005.6
20260506005503 14 131 8.0 0.0 0.00 0.00 0.00 92 1005.5
20260506005005 14 131 8.0 0.0 0.00 0.00 0.00 91 1005.6
20260506004504 14 135 8.0 0.0 0.00 0.00 0.00 91 1005.7
20260506004003 14 137 6.4 0.0 0.00 0.00 0.00 92 1005.6
20260506003503 14 143 4.8 0.0 0.00 0.00 0.00 92 1005.6
20260506003002 14 150 4.8 0.0 0.00 0.00 0.00 92 1005.5
20260506002504 14 148 4.8 0.0 0.00 0.00 0.00 92 1005.4
20260506002001 14 142 4.8 0.0 0.00 0.00 0.00 92 1005.1
20260506001502 14 140 4.8 0.0 0.00 0.00 0.00 91 1004.9
20260506001001 15 141 4.8 0.0 0.00 0.00 0.00 90 1004.9
20260506000502 15 141 3.2 0.0 0.00 0.00 0.00 90 1004.8
20260506000001 15 141 4.8 0.0 0.00 0.00 0.00 91 1004.7
20260505235500 15 141 4.8 0.0 0.00 0.00 0.00 91 1004.8
20260505235101 15 140 4.8 0.0 0.00 0.00 0.00 91 1004.8
20260505234600 15 140 1.6 0.0 0.00 0.00 0.00 90 1004.7
20260505234100 15 140 0.0 0.0 0.00 0.00 0.00 89 1004.8
20260505233600 15 140 0.0 0.0 0.00 0.00 0.00 90 1004.7
20260505233059 15 140 0.0 0.0 0.00 0.00 0.00 90 1004.7
20260505232559 15 140 0.0 0.0 0.00 0.00 0.00 90 1004.5
20260505232059 15 140 0.0 0.0 0.00 0.00 0.00 90 1004.4
20260505231559 15 140 1.6 0.0 0.00 0.00 0.00 90 1004.4
20260505231058 15 140 1.6 0.0 0.00 0.00 0.00 90 1004.3
20260505230558 15 140 0.0 0.0 0.00 0.00 0.00 90 1004.4
20260505230106 15 140 1.6 0.0 0.00 0.00 0.00 89 1004.4
20260505225558 15 140 1.6 0.0 0.00 0.00 0.00 89 1004.4
20260505225058 15 140 0.0 0.0 0.00 0.00 0.00 88 1004.3
20260505224558 15 140 1.6 0.0 0.00 0.00 0.00 88 1004.5
20260505224057 15 140 3.2 0.0 0.00 0.00 0.00 88 1004.5
20260505223557 15 140 4.8 0.0 0.00 0.00 0.00 87 1004.5
20260505223109 15 140 6.4 0.0 0.00 0.00 0.00 87 1004.4
20260505222556 15 130 6.4 0.0 0.00 0.00 0.00 87 1004.4
20260505222056 15 148 4.8 0.0 0.00 0.00 0.00 87 1004.5
20260505221557 15 159 4.8 0.0 0.00 0.00 0.00 86 1004.5
20260505221101 15 147 6.4 0.0 0.00 0.00 0.00 86 1004.5
20260505220600 15 139 6.4 0.0 0.00 0.00 0.00 85 1004.5
20260505220059 15 178 4.8 0.0 0.00 0.00 0.00 85 1005.2
20260505215555 15 224 4.8 0.0 0.00 0.00 0.00 86 1005.5
20260505215055 15 224 3.2 0.0 0.00 0.00 0.00 86 1005.3
20260505214555 15 162 1.6 0.0 0.00 0.00 0.00 87 1004.8
20260505214055 15 205 1.6 0.0 0.00 0.00 0.00 85 1004.7
20260505213559 15 234 4.8 0.0 0.00 0.00 0.00 85 1004.6
20260505213059 15 226 8.0 0.0 0.00 0.00 0.00 83 1004.6
20260505212554 15 246 8.0 0.0 0.00 0.00 0.00 83 1004.5
20260505212054 15 248 12.9 0.0 0.00 0.00 0.00 82 1004.3
20260505211554 14 292 22.5 0.0 0.00 0.00 0.00 81 1004.1
20260505211054 15 294 32.2 0.0 0.00 0.00 0.00 80 1004.0
20260505210554 15 298 43.5 0.0 0.00 0.00 0.00 80 1003.7
20260505210053 15 296 48.3 0.0 0.00 0.00 0.00 79 1003.6
20260505205554 16 288 46.7 0.0 0.00 0.00 0.00 76 1004.1
20260505205053 16 300 45.1 0.0 0.00 0.00 0.00 76 1004.2
20260505204558 16 281 40.2 0.0 0.00 0.00 0.00 73 1004.6
20260505204053 16 313 37.0 0.0 0.00 0.00 0.00 72 1003.9
20260505203553 17 303 35.4 0.0 0.00 0.00 0.00 73 1003.9
20260505203102 17 305 25.7 0.0 0.00 0.00 0.00 72 1004.0
20260505202553 17 293 12.9 0.0 0.00 0.00 0.00 74 1003.6
20260505202053 17 267 6.4 0.0 0.00 0.00 0.00 73 1003.4
20260505201552 17 238 4.8 0.0 0.00 0.00 0.00 75 1002.6
20260505201052 17 238 4.8 0.0 0.00 0.00 0.00 75 1002.7
20260505200556 17 236 4.8 0.0 0.00 0.00 0.00 77 1002.7
20260505200052 17 220 6.4 0.0 0.00 0.00 0.00 79 1002.6
20260505195553 16 221 6.4 0.0 0.00 0.00 0.00 81 1002.4
20260505195052 16 240 4.8 0.0 0.00 0.00 0.00 85 1002.5
20260505194604 15 146 6.4 0.0 0.00 0.00 0.00 86 1002.4
20260505194055 15 229 17.7 0.0 0.00 0.00 0.00 83 1002.6
20260505193551 15 269 30.6 0.0 0.00 0.00 0.00 82 1002.3
20260505193050 15 283 40.2 0.0 0.00 0.00 0.00 80 1002.5
20260505192550 15 272 43.5 0.0 0.00 0.00 0.00 79 1003.3
20260505192050 16 290 40.2 0.0 0.00 0.00 0.00 80 1003.5
20260505191551 16 275 33.8 0.0 0.00 0.00 0.00 76 1003.9
20260505191050 17 286 30.6 0.0 0.00 0.00 0.00 73 1003.3
20260505190553 17 265 25.7 0.0 0.00 0.00 0.00 71 1003.2
20260505190050 18 247 19.3 0.0 0.00 0.00 0.00 69 1003.0
20260505185554 19 232 25.7 0.0 0.00 0.00 0.00 67 1002.5
20260505185050 20 236 41.8 0.0 0.00 0.00 0.00 65 1002.2
20260505184550 21 238 51.5 0.0 0.00 0.00 0.00 59 1002.3
20260505184050 23 261 40.2 0.0 0.00 0.00 0.00 55 1002.3
20260505183552 24 240 27.4 0.0 0.00 0.00 0.00 44 1002.4
20260505183058 24 229 25.7 0.0 0.00 0.00 0.00 43 1001.6
20260505182548 24 229 27.4 0.0 0.00 0.00 0.00 43 1001.3
20260505182048 25 238 33.8 0.0 0.00 0.00 0.00 40 1001.4
20260505181548 25 229 32.2 0.0 0.00 0.00 0.00 41 1001.4
20260505181048 25 243 29.0 0.0 0.00 0.00 0.00 38 1001.5
20260505180547 25 224 37.0 0.0 0.00 0.00 0.00 39 1001.5
20260505180049 25 203 40.2 0.0 0.00 0.00 0.00 39 1001.5
20260505175547 25 222 33.8 0.0 0.00 0.00 0.00 40 1001.5
20260505175047 25 232 33.8 0.0 0.00 0.00 0.00 39 1001.5
20260505174550 25 227 35.4 0.0 0.00 0.00 0.00 37 1001.6
20260505174047 26 212 32.2 0.0 0.00 0.00 0.00 37 1001.6
20260505173545 26 205 32.2 0.0 0.00 0.00 0.00 37 1001.7
20260505173049 26 360 37.0 0.0 0.00 0.00 0.00 38 1001.7
20260505172548 26 229 37.0 0.0 0.00 0.00 0.00 38 1001.8
20260505172044 27 234 35.4 0.0 0.00 0.00 0.00 37 1001.7
20260505171543 26 219 33.8 0.0 0.00 0.00 0.00 39 1001.9
20260505171042 26 236 38.6 0.0 0.00 0.00 0.00 39 1001.9
20260505170541 26 229 37.0 0.0 0.00 0.00 0.00 41 1002.0
20260505170041 26 207 37.0 0.0 0.00 0.00 0.00 41 1002.2
20260505165539 26 55 40.2 0.0 0.00 0.00 0.00 41 1002.4
20260505165039 26 232 29.0 0.0 0.00 0.00 0.00 41 1002.3
20260505164549 26 219 25.7 0.0 0.00 0.00 0.00 44 1002.4
20260505164038 26 219 32.2 0.0 0.00 0.00 0.00 40 1002.4
20260505163534 26 221 33.8 0.0 0.00 0.00 0.00 39 1002.5
20260505163033 25 215 38.6 0.0 0.00 0.00 0.00 45 1002.6
20260505162532 25 200 40.2 0.0 0.00 0.00 0.00 43 1002.7
20260505162032 25 253 38.6 0.0 0.00 0.00 0.00 45 1002.7
20260505161531 25 211 35.4 0.0 0.00 0.00 0.00 45 1002.9
20260505161030 25 246 30.6 0.0 0.00 0.00 0.00 49 1003.0
20260505160528 24 216 30.6 0.0 0.00 0.00 0.00 48 1003.0
20260505153018 22 223 25.7 0.0 0.00 0.00 0.00 60 1003.6
20260505152517 21 250 24.1 0.0 0.00 0.00 0.00 60 1003.7
20260505152015 21 202 19.3 0.0 0.00 0.00 0.00 62 1003.9
20260505151517 20 219 16.1 0.0 0.00 0.00 0.00 64 1003.8
20260505151012 18 222 14.5 0.0 0.00 0.00 0.00 67 1004.0
20260505150511 18 228 14.5 0.0 0.00 0.00 0.00 72 1004.0
20260505140504 13 317 4.8 0.0 0.00 0.00 0.00 84 1004.6
20260505124559 15 212 6.4 0.0 0.00 0.00 0.00 74 1005.2
20260505124059 15 133 8.0 0.0 0.00 0.00 0.00 73 1004.9
20260505123557 15 138 9.7 0.0 0.00 0.00 0.00 74 1004.8
20260505123104 14 143 8.0 0.0 0.00 0.00 0.00 74 1004.8
20260505122557 14 133 8.0 0.0 0.00 0.00 0.00 74 1004.9
20260505122053 13 149 9.7 0.0 0.00 0.00 0.00 75 1004.9
20260505121553 13 150 9.7 0.0 0.00 0.00 0.00 75 1004.9
20260505121051 13 136 11.3 0.0 0.00 0.00 0.00 77 1005.0
20260505120550 13 161 12.9 0.0 0.00 0.00 0.00 78 1005.1
20260505120048 12 132 12.9 0.0 0.00 0.00 0.00 78 1005.1
20260505115548 12 131 12.9 0.0 0.00 0.00 0.00 80 1005.1
20260505115046 12 153 9.7 0.0 0.00 0.00 0.00 81 1005.4
20260505114547 11 125 4.8 0.0 0.00 0.00 0.00 85 1005.4
20260505114046 11 284 4.8 0.0 0.00 0.00 0.00 86 1005.4
20260505113545 11 284 4.8 0.0 0.00 0.00 0.00 87 1005.4
20260505113044 11 306 3.2 0.0 0.00 0.00 0.00 87 1005.4
20260505112544 11 306 4.8 0.0 0.00 0.00 0.00 87 1005.3
20260505112043 11 309 4.8 0.0 0.00 0.00 0.00 87 1005.3
20260505111551 11 309 4.8 0.0 0.00 0.00 0.00 86 1005.2
20260505111041 11 294 4.8 0.0 0.00 0.00 0.00 85 1005.0
20260505110540 11 294 4.8 0.0 0.00 0.00 0.00 86 1004.9
20260505102039 11 123 9.7 0.0 0.00 0.00 0.00 82 1004.7
20260505101539 11 128 8.0 0.0 0.00 0.00 0.00 82 1004.8
20260505101042 10 144 6.4 0.0 0.00 0.00 0.00 82 1004.9
20260505100542 10 159 8.0 0.0 0.00 0.00 0.00 81 1004.8
20260505100048 10 161 6.4 0.0 0.00 0.00 0.00 84 1004.9
20260505095541 10 157 0.0 0.0 0.00 0.00 0.00 84 1004.9
20260505095038 10 339 0.0 0.0 0.00 0.00 0.00 84 1004.8
20260505094539 10 339 0.0 0.0 0.00 0.00 0.00 83 1004.8
20260505094037 10 339 0.0 0.0 0.00 0.00 0.00 83 1004.4
20260505093538 10 339 0.0 0.0 0.00 0.00 0.00 80 1004.6
20260505093039 10 339 0.0 0.0 0.00 0.00 0.00 81 1004.7
20260505092537 11 339 0.0 0.0 0.00 0.00 0.00 81 1004.6
20260505092036 11 339 1.6 0.0 0.00 0.00 0.00 81 1004.7
20260505091551 11 339 3.2 0.0 0.00 0.00 0.00 81 1004.7
20260505091039 11 341 1.6 0.0 0.00 0.00 0.00 82 1004.6
20260505090538 11 341 1.6 0.0 0.00 0.00 0.00 82 1004.4
20260505090050 11 341 4.8 0.0 0.00 0.00 0.00 83 1004.6
20260505085534 11 338 6.4 0.0 0.00 0.00 0.00 82 1004.7
20260505085034 11 338 6.4 0.0 0.00 0.00 0.00 80 1004.8
20260505084537 11 329 3.2 0.0 0.00 0.00 0.00 80 1004.8
20260505084034 12 178 0.0 0.0 0.00 0.00 0.00 75 1004.8
20260505083534 12 178 1.6 0.0 0.00 0.00 0.00 74 1004.7
20260505083041 12 178 1.6 0.0 0.00 0.00 0.00 73 1004.9
20260505082533 12 66 1.6 0.0 0.00 0.00 0.00 70 1005.0
20260505082033 12 66 3.2 0.0 0.00 0.00 0.00 70 1005.0
20260505081550 12 308 8.0 0.0 0.00 0.00 0.00 70 1005.0